Sisseton, SD

4:35 AM CST on December 16, 2017 (GMT -0600)
Sisseton

Weather History for K8D3 - November, 2012

Change the Weather History Date:

Sunday, November 25, 2012

  Actual Average Record
Temperature  
Mean Temperature 26 °F 25 °F  
Max Temperature 35 °F 35 °F 68 °F (1960)
Min Temperature 17 °F 16 °F -16 °F (1977)
Degree Days  
Heating Degree Days 39 40  
Month to date heating degree days 773 819  
Since 1 July heating degree days 1646 1646  
Cooling Degree Days 0 0  
Month to date cooling degree days 0 0  
Year to date cooling degree days 712 527  
Moisture  
Dew Point 19 °F    
Average Humidity 70    
Maximum Humidity 81    
Minimum Humidity 59    
Precipitation  
Precipitation 0.00 in 0.01 in 0.68 in (1934)
Month to date precipitation 0.27 0.54  
Year to date precipitation 16.77 21.90  
Snow  
Snow 0.00 in - - ()
Month to date snowfall T  
Since 1 July snowfall T  
Snow Depth 0.00 in    
Sea Level Pressure  
Sea Level Pressure 30.10 in    
Wind  
Wind Speed 14 mph (North)    
Max Wind Speed 25 mph    
Max Gust Speed 31 mph    
T = Trace of Precipitation, MM = Missing Value Source: NWS Daily Summary

Daily Weather History Graph

Daily Weather History Graph

Search for Another Location

Airport or City:

Trip Planner

Search our weather history database for the weather conditions in past years. The results will help you decide how hot, cold, wet, or windy it might be!

Date:

Astronomy

Nov. 25, 2012 Rise Set
Actual Time 7:41 AM CST 4:48 PM CST
Civil Twilight 7:08 AM CST 5:21 PM CST
Nautical Twilight 6:31 AM CST 5:58 PM CST
Astronomical Twilight 5:56 AM CST 6:33 PM CST
Moon 3:10 PM CST (11/25) 4:50 AM CST (11/25)
Length of Visible Light 10h 13m
Length of Day
9h 06m
Waxing Gibbous, 93% of the Moon is Illuminated
Nov 25
Waxing Gibbous
Nov 28
Full
Dec 6
Last Quarter
Dec 13
New
Dec 19
First Quarter

Hourly Weather History & Observations

Time (CST) Temp. Windchill Dew Point Humidity Pressure Visibility Wind Dir Wind Speed Gust Speed Precip Events Conditions
12:56 AM 30.9 °F 19.8 °F 25.0 °F 79% 29.96 in - North 16.1 mph - N/A   Unknown
1:56 AM 30.0 °F 18.7 °F 24.1 °F 79% 29.97 in - North 16.1 mph - N/A   Unknown
2:56 AM 28.0 °F 13.9 °F 23.0 °F 81% 29.99 in - North 23.0 mph 27.6 mph N/A   Unknown
3:56 AM 24.1 °F 11.5 °F 19.0 °F 81% 30.01 in - North 15.0 mph 24.2 mph N/A   Unknown
4:56 AM 24.1 °F 11.5 °F 19.0 °F 81% 30.02 in - North 15.0 mph - N/A   Unknown
5:56 AM 24.1 °F 12.5 °F 19.0 °F 81% 30.03 in - North 12.7 mph - N/A   Unknown
6:56 AM 25.0 °F 14.2 °F 19.0 °F 78% 30.04 in - NNW 11.5 mph - N/A   Unknown
7:56 AM 24.1 °F 13.1 °F 19.0 °F 81% 30.04 in - WNW 11.5 mph - N/A   Unknown
8:56 AM 25.0 °F 15.5 °F 19.9 °F 81% 30.05 in - NW 9.2 mph - N/A   Unknown
9:56 AM 28.0 °F 17.0 °F 19.9 °F 72% 30.08 in - NNW 13.8 mph - N/A   Unknown
10:56 AM 28.9 °F 18.6 °F 21.0 °F 72% 30.08 in - NW 12.7 mph - N/A   Unknown
11:56 AM 33.1 °F 23.0 °F 21.9 °F 64% 30.05 in - NW 15.0 mph 25.3 mph N/A   Unknown
12:56 PM 33.1 °F 21.5 °F 21.0 °F 61% 30.04 in - NNW 19.6 mph 25.3 mph N/A   Unknown
1:56 PM 33.1 °F 23.0 °F 21.9 °F 64% 30.04 in - NNW 15.0 mph 23.0 mph N/A   Unknown
2:56 PM 32.0 °F 20.1 °F 19.9 °F 61% 30.07 in - North 19.6 mph 27.6 mph N/A   Unknown
3:56 PM 30.0 °F 19.1 °F 19.0 °F 64% 30.09 in - NNE 15.0 mph - N/A   Unknown
4:56 PM 28.0 °F 18.1 °F 18.0 °F 66% 30.13 in - North 11.5 mph - N/A   Unknown
5:56 PM 28.0 °F 18.6 °F 17.1 °F 63% 30.15 in - North 10.4 mph - N/A   Unknown
6:56 PM 23.0 °F 11.1 °F 17.1 °F 78% 30.19 in - NE 12.7 mph - N/A   Unknown
7:56 PM 21.0 °F 7.1 °F 15.1 °F 78% 30.23 in - NE 16.1 mph - N/A   Unknown
8:56 PM 19.9 °F 7.9 °F 12.9 °F 74% 30.28 in - NNE 11.5 mph - N/A   Unknown
9:56 PM 18.0 °F 4.2 °F 12.0 °F 78% 30.30 in - NNE 13.8 mph - N/A   Unknown
10:56 PM 17.1 °F 5.8 °F 12.0 °F 81% 30.33 in - North 9.2 mph - N/A   Unknown
11:56 PM 17.1 °F 3.0 °F 10.0 °F 74% 30.35 in - NNE 13.8 mph - N/A   Unknown